Volver al catálogo

THORAD AGENA D DEB

ActivoSSO
NORAD 39592·DEBRIS·🇺🇸 United States

Lanzado Apr 8, 1970 desde Vandenberg Space Force Base

Loading…

Próximos Pases (próximas 24 horas)

TLE

ActualizadoSource: Space-Track

Época: Sep 12, 2026, 00:43 UTC

1 39592U 70025QT  26255.03054939  .00000628  00000-0  92427-3 0  9998
2 39592 100.1333 279.3566 0003355 166.7626 193.3600 13.58696530620948

Sigue THORAD AGENA D DEB en tiempo real con AllMySat

Download on the App Store